SCOUT X-1 DEB, 4026

Orbit data source: Space-Track

SCOUT X-1 DEB, 4026 is space debris in LEO originally from a launch on Thu, 16 Feb 1961 UTC launched from the Wallops Island (WLPIS). Debris objects in space refer to the collection of defunct objects orbiting the Earth. Examples of debris include non-operational satellites, rocket bodies, and fragments generated from explosions, collisions, or faulty payload assembly.

Loading next visibility...
Identifier
4026, 1961-004G
Orbit
LEO
Country
Flag of USUS
Related business
Manufacturer
Unknown
Mission
Spacecraft
Bus & Motor
Unknown
Mass
Unknown
Launch date (UTC)
1961-02-16 (66 years ago)
Launch vehicle
Unknown
Launch site
Wallops Island (WLPIS)
Object type
Payload
Rocket body
Debris
Shape & HBR
Unknown shape, 0.1 m
Radar Cross Section
Medium (>0.1 m² and <1 m²)

Expand to show TLE details & history
Last TLE update: 15 hours ago

TLE from 15 hours ago
0 SCOUT X-1 DEB
1 04026U 61004G   26255.08042048  .00003434  00000-0  64276-3 0  9991
2 04026  38.8205  41.0207 0369503  21.2486 340.3178 14.29856032146246
Epoch: 2026-09-12T01:55Z
TLE epoch observation values (Epoch: 2026-09-12T01:55:48.329Z)
Latitude
0.00002°
Longitude
20.9748°
Altitude
543.298 km
Speed
7.723 km/s
True Right ascension
02h 44m 04s
True Declination
0° 00' 00"
Sunlit
Object was in full shadow at epoch
Visualization orbit readout
Latitude
Unknown
Longitude
Unknown
Altitude
Unknown
Speed
Unknown
Apparent Right ascension
Unknown
Apparent Declination
Unknown
Sunlit
N/A
Visualization observer readout
Local Sidereal Time
09:32:45
Azimuth
Unknown
Elevation
Unknown
Doppler factor
Unknown
Orbital elements
Apogee altitude
1,059.784 km
Perigee altitude
529.704 km
Semi-major axis
7,172.881 km
Eccentricity
0.03695
Inclination
38.8205°
RAAN
41.0207°
Arg. of periapsis
21.2486°
True anomaly
338.82717°
Mean anomaly
340.3178°
Eccentric anomaly
339.57912°
Mean motion
3.57275 °/min
Orbital period
100.76 mins
BSTAR
0.00064276
Loading maneuver chart data...
Computing Atmospheric mass density...
Loading historical data...
Loading historical data...
Loading historical data...
Loading historical data...
Loading historical data...
Loading historical data...
Loading historical data...

Documentation

Showing up to 5 results
|